Miscellaneous Local Product
Issued by NWS Hastings, NE

Home | Current Version | Previous Version | Graphics & Text | Print | Product List | Glossary On
Versions: 1 2 3 4 5 6 7 8 9 10 11 12 13 14 15 16 17 18 19 20 21 22 23 24 25 26 27 28 29 30 31 32 33 34 35 36 37 38 39 40 41 42 43 44 45 46 47 48 49 50
000
AXUS43 KGID 181502
MISGRI

GID CWA HOURLY WEATHER ROUNDUP
NATIONAL WEATHER SERVICE HASTINGS NE
900 AM CST SUN FEB 18 2018

NOTE: "FAIR" INDICATES FEW OR NO CLOUDS BELOW 12,000 FEET WITH NO
SIGNIFICANT WEATHER AND/OR OBSTRUCTIONS TO VISIBILITY.

...SOUTH CENTRAL NEBRASKA...

CITY           SKY/WX    TMP DP  RH WIND       PRES   REMARKS
GRAND ISLAND   CLOUDY    44  23  43 S25G37    29.68F
KEARNEY        CLOUDY    43  25  49 S18       29.68S
HASTINGS       CLOUDY    42  21  43 S15G26    29.71F
ORD            CLOUDY    41  25  53 S17G28    29.60S
YORK           CLOUDY    41  27  56 S26G36    29.73F
AURORA         CLOUDY    39  23  52 S18G24    29.71F WCI  30
LEXINGTON      CLOUDY    41  26  56 S10G22    29.63S
HOLDREGE       CLOUDY    43  26  51 S15G24    29.65S
HEBRON         CLOUDY    45  27  50 S24G31    29.80F

...NEBRASKA PANHANDLE...

CITY           SKY/WX    TMP DP  RH WIND       PRES   REMARKS
CHADRON        PTSUNNY   39  25  57 NE20G29   29.50R WCI  29
ALLIANCE       CLOUDY    37  22  54 W5        29.49R WCI  33
SCOTTSBLUFF    PTSUNNY   53  14  21 SW15      29.50S
SIDNEY         CLOUDY    40  19  43 SW10      29.54R WCI  33

...WESTERN AND NORTH CENTRAL NEBRASKA...

CITY           SKY/WX    TMP DP  RH WIND       PRES   REMARKS
VALENTINE      CLOUDY    41  23  48 SW17      29.45R
AINSWORTH      CLOUDY    38  24  55 S22G29    29.48S WCI  28
ONEILL         CLOUDY    41  25  52 S21G26    29.54F
BROKEN BOW     CLOUDY    38  25  59 S14       29.58F WCI  30
IMPERIAL       CLOUDY    35  24  64 SW6       29.57R WCI  30
NORTH PLATTE   CLOUDY    38  25  59 S16       29.57F WCI  29
MCCOOK         CLOUDY    41  28  60 S18G30    29.59F

...EASTERN NEBRASKA...

CITY           SKY/WX    TMP DP  RH WIND       PRES   REMARKS
NORFOLK        MOSUNNY   41  25  53 S33G53    29.60F
SO SIOUX CITY  SUNNY     41  26  55 S30G41    29.70F
TEKAMAH        SUNNY     37  27  67 S24       29.76F WCI  26
COLUMBUS       CLOUDY    40  25  55 S21G30    29.71F WCI  30
ALBION         CLOUDY    41  28  61 S15       29.65S
OMAHA EPPLEY   CLOUDY    40  27  59 S24       29.81F WCI  29
OFFUTT AFB     CLOUDY    39  28  66 SE15G21   29.83F WCI  30
MILLARD        CLOUDY    42  28  58 S12G17    29.82F
LINCOLN        CLOUDY    44  26  49 S28G39    29.78F
NEBRASKA CITY  CLOUDY    41  33  74 S21G28    29.87F
BEATRICE       CLOUDY    44  28  53 S23G30    29.85S
FALLS CITY     CLOUDY    42  32  67 S20G33    29.93F

...NORTHERN KANSAS...

CITY           SKY/WX    TMP DP  RH WIND       PRES   REMARKS
GOODLAND       CLOUDY    39  25  57 S10       29.59F WCI  32
HILL CITY      CLOUDY    44  25  47 S17G32    29.69F
NORTON         SUNNY     45  19  36 S23G31    29.65S
PHILLIPSBURG   SUNNY     46  21  36 S8G18     29.72S
SMITH CENTER   SUNNY     43  19  39 S15G22    29.75F
BELOIT         SUNNY     43  27  52 S21G28    29.82F
HAYS           CLOUDY    46  24  42 S32G43    29.74F
RUSSELL        CLOUDY    48  26  42 S31G40    29.77F
CONCORDIA      CLOUDY    44  26  49 S25G44    29.83S
SALINA         MOSUNNY   49  27  42 S25G33    29.89F
TOPEKA         CLOUDY    45  32  60 S21G29    30.00F



USA.gov is the U.S. government's official web portal to all federal, state and local government web resources and services.